Regional Weather Roundup
Issued by NWS

Home | Current Version | Previous Version | Text Only | Print | Product List | Glossary Off
Versions: 1 2 3 4 5 6 7 8 9 10 11 12 13 14 15 16 17 18 19 20 21 22 23 24 25 26 27 28 29 30 31 32 33 34 35 36 37 38 39 40 41 42 43 44 45 46 47 48 49 50

000
ASUS43 KLMK 201410
RWRKY
KENTUCKY REGIONAL WEATHER ROUNDUP
NATIONAL WEATHER SERVICE LOUISVILLE KY
900 AM EST FRI JAN 20 2017

NOTE "FAIR" INDICATES FEW OR NO CLOUDS BELOW 12,000 FEET
WITH NO SIGNIFICANT WEATHER AND/OR OBSTRUCTIONS TO VISIBILITY.

KYZ001>023-026-027-061>063-070>075-201500-
WESTERN AND SOUTH CENTRAL KENTUCKY

CITY           SKY/WX    TMP DP  RH WIND       PRES   REMARKS
PADUCAH        CLOUDY    54  49  83 CALM      29.71S
HENDERSON      CLOUDY    54  48  82 SW13G18   29.72R
OWENSBORO      CLOUDY    54  52  93 SW5       29.73R
HOPKINSVILLE   MOCLDY    56  56  99 S8        29.75R
BOWLING GREEN  MOSUNNY   57  53  86 SW9       29.76R
GLASGOW        CLOUDY    55  55 100 S6        29.78R
$$

KYZ024-025-028>034-038-045-046-053-201500-
NORTH CENTRAL KENTUCKY

CITY           SKY/WX    TMP DP  RH WIND       PRES   REMARKS
LOUISVILLE/SDF CLOUDY    57  53  86 SW9       29.72R
LOUISVILLE/LOU CLOUDY    57  53  86 SW8       29.72R
FORT KNOX      CLOUDY    55  55 100 S10       29.72R
$$

KYZ035>037-039>044-047>052-055>060-089>105-201500-
NORTHEAST KENTUCKY

CITY           SKY/WX    TMP DP  RH WIND       PRES   REMARKS
LEXINGTON      LGT RAIN  56  53  90 SW10      29.76R
COVINGTON      LGT RAIN  54  53  97 SW9G18    29.68R
FRANKFORT      CLOUDY    56  52  86 SW13      29.73R
$$

KYZ054-064>069-076>088-106>120-201500-
SOUTHEAST KENTUCKY

CITY           SKY/WX    TMP DP  RH WIND       PRES   REMARKS
JACKSON        CLOUDY    54  51  90 W3        29.80R
LONDON         CLOUDY    54  51  90 S5        29.80R
SOMERSET       RAIN      52  52 100 CALM      29.81R
MIDDLESBORO    MOSUNNY   49  49 100 CALM      29.82R FOG
MONTICELLO     LGT RAIN  57  55  93 W17       29.82R
$$





USA.gov is the U.S. government's official web portal to all federal, state and local government web resources and services.